GIA009 WAHS-WADD

Flight info

Callsign GIA009
Flight time N/A
Altitude 35000
Route BA T3 MOVMO
Aircraft B738/M-SDE2E3FGHIRWXY/LB1

Departure

Time 2026-04-22 12:10
Airport Jenderal Ahmad Yani Airport (WAHS)

Arrival

Time N/A
Airport Denpasar I Gusti Ngurah Rai International Airport (WADD)
Time Latitude Longitude Altitude Speed Heading
2026-04-22 11:49 -6.96692 110.37420 18 ft 0 kts 41°
2026-04-22 12:02 -6.96697 110.37415 19 ft 3 kts 40°
2026-04-22 12:02 -6.96713 110.37403 20 ft 3 kts 32°
2026-04-22 12:02 -6.96731 110.37393 20 ft 3 kts 19°
2026-04-22 12:03 -6.96750 110.37388 21 ft 3 kts 352°
2026-04-22 12:03 -6.96764 110.37393 18 ft 2 kts 312°
2026-04-22 12:03 -6.96765 110.37394 18 ft 1 kts 310°
2026-04-22 12:05 -6.96763 110.37392 20 ft 4 kts 310°
2026-04-22 12:05 -6.96706 110.37324 18 ft 18 kts 310°
2026-04-22 12:05 -6.96633 110.37237 18 ft 10 kts 310°
2026-04-22 12:06 -6.96630 110.37190 19 ft 8 kts 234°
2026-04-22 12:06 -6.96675 110.37148 17 ft 10 kts 220°
2026-04-22 12:06 -6.96740 110.37095 13 ft 15 kts 219°
2026-04-22 12:06 -6.96782 110.37000 7 ft 15 kts 294°
2026-04-22 12:07 -6.96710 110.36907 5 ft 19 kts 310°
2026-04-22 12:07 -6.96621 110.36800 5 ft 21 kts 310°
2026-04-22 12:07 -6.96518 110.36678 4 ft 24 kts 309°
2026-04-22 12:07 -6.96410 110.36552 4 ft 20 kts 310°
2026-04-22 12:08 -6.96332 110.36460 4 ft 17 kts 309°
2026-04-22 12:08 -6.96289 110.36392 3 ft 9 kts 281°
2026-04-22 12:08 -6.96265 110.36348 3 ft 7 kts 339°
2026-04-22 12:08 -6.96249 110.36356 3 ft 1 kts 75°
2026-04-22 12:09 -6.96256 110.36368 3 ft 3 kts 120°
2026-04-22 12:09 -6.96275 110.36394 3 ft 19 kts 128°
2026-04-22 12:09 -6.96568 110.36740 5 ft 109 kts 130°
2026-04-22 12:09 -6.97219 110.37517 174 ft 167 kts 129°
2026-04-22 12:10 -6.98027 110.38479 861 ft 196 kts 127°
2026-04-22 12:10 -6.98637 110.39646 2057 ft 183 kts 112°
2026-04-22 12:10 -6.99130 110.40870 2899 ft 197 kts 111°
2026-04-22 12:10 -6.99676 110.42227 3192 ft 226 kts 111°
2026-04-22 12:11 -7.00309 110.43787 3405 ft 254 kts 112°
2026-04-22 12:11 -7.01010 110.45499 3890 ft 272 kts 112°
2026-04-22 12:11 -7.01744 110.47273 4782 ft 275 kts 112°
2026-04-22 12:11 -7.02469 110.49061 5691 ft 278 kts 107°
2026-04-22 12:12 -7.02670 110.50997 6535 ft 281 kts 88°
2026-04-22 12:12 -7.02583 110.52966 7359 ft 284 kts 86°
2026-04-22 12:12 -7.02474 110.54964 8185 ft 287 kts 86°
2026-04-22 12:12 -7.02367 110.56983 9015 ft 291 kts 87°
2026-04-22 12:13 -7.02268 110.59032 9836 ft 295 kts 87°
2026-04-22 12:13 -7.02176 110.61103 10585 ft 298 kts 87°
2026-04-22 12:13 -7.02090 110.63197 11343 ft 302 kts 87°
2026-04-22 12:13 -7.02007 110.65322 12101 ft 305 kts 87°
2026-04-22 12:14 -7.01928 110.67463 12848 ft 309 kts 87°
2026-04-22 12:14 -7.01849 110.69644 13598 ft 313 kts 87°
2026-04-22 12:14 -7.01770 110.71844 14258 ft 316 kts 87°
2026-04-22 12:14 -7.01693 110.74043 14933 ft 319 kts 87°
2026-04-22 12:15 -7.01614 110.76285 15615 ft 322 kts 87°
2026-04-22 12:15 -7.01563 110.78548 16278 ft 326 kts 93°
2026-04-22 12:15 -7.02018 110.80802 16927 ft 330 kts 106°
2026-04-22 12:15 -7.02732 110.83010 17590 ft 334 kts 108°
2026-04-22 12:16 -7.03492 110.85230 18222 ft 337 kts 108°
2026-04-22 12:16 -7.04264 110.87472 18780 ft 340 kts 108°
2026-04-22 12:16 -7.05037 110.89736 19353 ft 343 kts 108°
2026-04-22 12:16 -7.05810 110.92025 19926 ft 346 kts 108°
2026-04-22 12:17 -7.06582 110.94336 20490 ft 349 kts 108°
2026-04-22 12:17 -7.07354 110.96663 21053 ft 352 kts 108°
2026-04-22 12:17 -7.08118 110.98981 21600 ft 355 kts 108°
2026-04-22 12:17 -7.08900 111.01357 22141 ft 358 kts 107°
2026-04-22 12:18 -7.09683 111.03746 22696 ft 361 kts 108°
2026-04-22 12:18 -7.10473 111.06158 23216 ft 364 kts 108°
2026-04-22 12:18 -7.11270 111.08592 23686 ft 367 kts 108°
2026-04-22 12:18 -7.12074 111.11049 23823 ft 368 kts 108°
2026-04-22 12:19 -7.12872 111.13489 23854 ft 367 kts 108°
2026-04-22 12:19 -7.13674 111.15943 23867 ft 369 kts 108°
2026-04-22 12:19 -7.14477 111.18399 23874 ft 369 kts 108°
2026-04-22 12:19 -7.15269 111.20823 23875 ft 370 kts 108°
2026-04-22 12:20 -7.16073 111.23284 23876 ft 370 kts 108°
2026-04-22 12:20 -7.16876 111.25742 23873 ft 370 kts 108°
2026-04-22 12:20 -7.17679 111.28203 23873 ft 370 kts 108°
2026-04-22 12:20 -7.18483 111.30665 23878 ft 371 kts 108°
2026-04-22 12:21 -7.19298 111.33160 24105 ft 376 kts 108°
2026-04-22 12:21 -7.20111 111.35653 24690 ft 373 kts 108°
2026-04-22 12:21 -7.20856 111.37934 25174 ft 373 kts 108°
2026-04-22 12:21 -7.20912 111.38107 25213 ft 373 kts 108°